www.pogodaiklimat.ru

Погода и климат >> Архив погоды >> Черногория >> Подгорица


АРХИВ ПОГОДЫ в Подгорице

Время (UTC), дата Ветер
(напр.,м/с)
 
Видим.   Явления Облачность Т
(С)
Тd
(С)
f
(%)
Тe
(С)
Тes
(С)
Комфортность P
(гПа)
Po
(гПа)
Тmin
(С)
Tmax
(С)
R
(мм)
R24
(мм)
S
(см)
09 17.04 ЮЗ 1 10 км 3/3 900 м
[Cu med, cong]
+17.1 +7.0 51 +18 +29 тепло 1018.7 1014.7
12 17.04 Ю 3 10 км 5/5 1000 м
[Cu Sc]
+19.4 +5.0 39 +20 +26 тепло 1017.2 1013.2
15 17.04 Ю 2 10 км 3/3 1000 м
[Cu med, cong]
+18.9 +5.3 41 +20 +23 тепло 1016.5 1012.5
18 17.04 З 1 10 км 3/3 1000 м
[Cu med, cong]
+14.8 +6.3 57 +15 +15 по сезону 1017.5 1013.5 +19.4
21 17.04 С 1 8000 м дым 3/3 1000 м
[Cu hum]
+12.0 +7.3 73 +12 +12 по сезону 1019.7 1015.6
00 18.04 С 2 5000 м дым ясно +9.8 +6.2 78 +8 +8 по сезону 1020.3 1016.2
03 18.04 С 3 10 км 3/3 1500 м
[Sc]
+10.8 +1.5 53 +9 +9 по сезону 1020.4 1016.2
06 18.04 С 4 10 км 3/0
[Ac trans]
+13.5 +2.8 48 +12 +14 по сезону 1021.3 1017.2 +9.3
09 18.04 СВ 2 10 км 4/4 1500 м
[Cu hum]
+18.5 +0.9 31 +19 +28 тепло 1021.8 1017.7
12 18.04 штиль 0 10 км 5/5 1200 м
[Cu med, cong]
+20.6 +1.2 27 +20 +31 тепло 1021.1 1017.1
15 18.04 Ю 1 10 км 6/6 1500 м
[Cu med, cong]
+20.1 +3.0 32 +22 +24 комфорт 1021.0 1017.1
18 18.04 СВ 1 10 км 3/3 1500 м
[Sc]
+16.3 +1.4 36 +17 +17 тепло 1022.6 1018.6 +21.1
21 18.04 СВ 1 10 км ясно +15.4 +0.3 36 +16 +16 тепло 1024.9 1020.8
00 19.04 СВ 4 10 км ясно +13.9 +1.6 43 +13 +13 тепло 1025.8 1021.7
03 19.04 С 4 10 км ясно +13.0 +1.4 45 +12 +12 по сезону 1026.2 1022.1
06 19.04 С 2 20 км 1/1 1200 м
[Sc]
+15.4 +2.1 41 +15 +18 тепло 1026.8 1022.7 +10.8
09 19.04 С 3 20 км 3/3 900 м
[Cu Sc]
+19.8 +2.2 31 +20 +29 тепло 1026.5 1022.5
12 19.04 С 5 20 км 3/3 1200 м
[Cu med, cong]
+22.7 +0.3 23 +22 +28 комфорт 1024.5 1020.5
15 19.04 СЗ 3 20 км 1/1 1500 м
[Cu hum]
+24.1 +1.8 23 +23 +27 комфорт 1022.4 1018.5
18 19.04 ЮВ 1 20 км ясно +16.4 +4.7 46 +17 +17 тепло 1023.4 1019.4 +24.3
21 19.04 СВ 4 10 км ясно +16.3 +1.5 37 +16 +16 тепло 1024.8 1020.8
00 20.04 С 4 10 км ясно +14.3 +2.1 44 +13 +13 тепло 1025.1 1021.0
03 20.04 С 3 10 км ясно +12.0 +2.1 51 +11 +11 по сезону 1024.4 1020.3
06 20.04 С 3 20 км ясно +16.3 +2.8 40 +16 +19 тепло 1024.2 1020.1 +11.0
09 20.04 С 4 20 км 1/1 1000 м
[Cu hum]
+22.3 +0.2 23 +22 +30 комфорт 1023.2 1019.2
12 20.04 Ю 4 20 км 1/1 1200 м
[Cu hum]
+23.4 +2.0 25 +23 +32 комфорт 1022.1 1018.2
15 20.04 Ю 5 20 км 1/1 1200 м
[Cu hum]
+23.1 +2.2 25 +23 +25 комфорт 1021.1 1017.2
18 20.04 В 1 20 км 1/1 1200 м
[Cu hum]
+16.8 +5.7 48 +18 +18 тепло 1022.1 1018.0 +23.8
21 20.04 СЗ 2 20 км ясно +17.0 +3.1 39 +17 +17 тепло 1024.0 1020.0
00 21.04 С 2 20 км ясно +13.6 +0.4 40 +13 +13 тепло 1024.1 1020.0
03 21.04 СВ 2 20 км ясно +12.4 +0.9 45 +12 +12 по сезону 1023.7 1019.6
06 21.04 С 2 10 км 4/0
[Ci sp]
+14.8 +2.6 44 +15 +18 тепло 1024.5 1020.4 +12.4
09 21.04 ЮВ 1 10 км 4/0
[Ci sp]
+18.7 +3.2 36 +20 +35 опасность
простуды
1024.3 1020.3
12 21.04 Ю 3 10 км 5/1 1200 м
[Cu hum Ci sp]
+19.8 +5.6 39 +21 +31 комфорт 1023.2 1019.2
15 21.04 Ю 2 10 км 5/1 1200 м
[Cu med, cong Ci sp]
+20.7 +7.4 42 +22 +26 комфорт 1021.3 1017.3
18 21.04 ЮВ 3 10 км 6/1 1200 м
[Sc diur, vesp Cs]
+15.8 +10.4 70 +15 +15 по сезону 1021.2 1017.2 +21.2
21 21.04 ЮЗ 1 10 км 5/0
[Ci sp]
+14.1 +11.3 83 +14 +14 по сезону 1021.6 1017.5
00 22.04 СВ 1 10 км 3/0
[Ci sp]
+11.2 +8.7 85 +11 +11 по сезону 1021.2 1017.1
03 22.04 СВ 2 10 км ясно +10.4 +7.6 83 +9 +9 по сезону 1020.5 1016.3
06 22.04 СВ 2 10 км 3/1 1000 м
[Cu hum Ac trans]
+13.7 +7.3 65 +13 +16 по сезону 1020.0 1016.0 +9.4
09 22.04 штиль 0 10 км 6/3 1200 м
[Cu med, cong Ci sp]
+18.8 +8.5 51 +19 +32 опасность
простуды
1019.0 1015.0
12 22.04 Ю 2 10 км 6/3 1200 м
[Cu hum Ci sp]
+21.0 +7.4 41 +23 +33 комфорт 1017.2 1013.2
15 22.04 Ю 1 10 км 6/3 1200 м
[Cu med, cong Ci sp]
+20.4 +7.4 43 +23 +26 комфорт 1015.7 1011.8
18 22.04 З 3 10 км 8/6 1000 м
[Cu Sc Ac trans]
+18.4 +6.4 45 +19 +19 тепло 1015.2 1011.2 +21.4
21 22.04 Ю 1 10 км 10/6 1000 м
[Cu Sc As op]
+17.0 +8.1 56 +18 +18 тепло 1017.5 1013.4
00 23.04 З 3 10 км слаб. дождь 10/6 900 м
[Cu Sc As op]
+13.7 +12.2 91 +12 +12 по сезону 1016.6 1012.5 1
03 23.04 СЗ 2 10 км в посл. час дождь 9/4 1200 м
[Sc Ac As]
+13.0 +12.0 94 +12 +12 по сезону 1013.9 1009.9
06 23.04 С 2 10 км {дождь} 9/6 210 м
[Sc Ac As]
+14.1 +11.6 85 +14 +14 по сезону 1013.4 1009.3 +12.8 5
09 23.04 З 1 10 км 8/0
[Ac trans Cs]
+18.7 +10.7 60 +20 +32 тепло 1013.1 1009.2
12 23.04 штиль 0 10 км 8/4 1500 м
[Cu med, cong Ac As]
+21.3 +12.8 58 +24 +30 комфорт 1013.2 1009.3
15 23.04 ЮЗ 5 10 км 9/5 1200 м
[Cu Sc Ac As]
+20.3 +6.8 41 +21 +22 комфорт 1014.5 1010.5
18 23.04 Ю 4 10 км 9/6 1200 м
[Cu Sc Ac As]
+19.1 +9.0 52 +20 +20 тепло 1014.7 1010.7 +22.7
21 23.04 штиль 0 10 км слаб. ливневой дождь, в посл. час гроза 10/8 900 м
[Cu Sc As op]
+14.8 +13.1 90 +14 +14 по сезону 1017.8 1013.8
00 24.04 С 2 10 км слаб. дождь {гроза} 10/8 900 м
[Cu Sc As op]
+14.4 +13.3 93 +14 +14 тепло 1019.0 1014.9 8
03 24.04 С 2 10 км 10/8 900 м
[Cu Sc As op]
+14.2 +12.6 90 +14 +14 тепло 1019.2 1015.2
06 24.04 С 2 10 км {дождь} 4/3 1500 м
[Sc Ac trans]
+16.9 +12.5 75 +17 +19 тепло 1020.0 1016.0 +13.6 10

 

Местоположение метеостанции Подгорица (Черногория): широта 42.37 долгота 19.25 высота над уровнем моря 33 м.

В архиве по умолчанию представлена погода в Подгорице за последнюю неделю. Архивные данные за месяц целиком и за предыдущие месяцы, начиная с января 2011 года, Вы можете получить, выбрав интересующий диапазон дат из раскрывающегося списка и нажав кнопку "Ввод!".


*Определитесь, кто Вы:
робот инопланетянин человек

Внимание! Время в таблицах - всемирное. Для получения местного времени необходимо прибавить поправку, которая равна 1 ч.

Смотрите также архив погоды в соседних городах и на ближайших метеорологических станциях:

Погода в Подгорица-Граде (Черногория) (7 км)
Погода в Баре (Черногория) (32 км)
Погода в Шкодре (Албания) (38 км)
Погода в Тивате (Черногория) (43 км)
Погода в Никшиче (Черногория) (51 км)
Погода в Дубровник аэропорту (Хорватия) (83 км)
Погода в Дубровнике (Хорватия) (101 км)
Погода в Плевле (Черногория) (109 км)
Погода в Тиране Лапрака (Албания) (117 км)
Погода в Женике (Сербия) (118 км)

Пояснения к столбцам:

Ветер - указаны скорость ветра в м/с - средняя за 10 мин, порывы в срок и между сроками (в фигурных скобках) и направление, откуда дует ветер: С - северный, СВ - северо-восточный, В - восточный, ЮВ - юго-восточный, Ю - южный, ЮЗ - юго-западный, З - западный, СЗ - северо-западный.
Видимость - горизонтальная дальность видимости в метрах или километрах. При видимости от 1 до 10 км при отсутствии осадков обычно наблюдается дымка, при ухудшении видимости до 1 км и менее - туман. В сухую погоду видимость может ухудшаться дымом, пылью или мглою.
Явления - указаны атмосферные явления, наблюдавшиеся в срок или в последний час перед сроком; фигурными скобками обозначены явления, наблюдавшиеся между сроками (за 1-3 часа до срока); квадратными скобками обозначены град или гололедные отложения с указанием их диаметра в мм.
Облачность - указаны через наклонную черту общая и нижняя облачность в баллах и высота нижней границы облаков в метрах; квадратными скобками обозначены формы облаков: Ci - перистые, Cs - перисто-слоистые, Cc - перисто-кучевые, Ac - высококучевые, As - высокослоистые, Sc - слоисто-кучевые, Ns - слоисто-дождевые, Cu - кучевые, Cb - кучево-дождевые. Подробнее классификацию облаков см. в Атласе облаков (PDF).
T - Температура воздуха - температура, измеренная на высоте 2 м над землей.
Td - Температура точки росы - температура, при понижении до которой содержащийся в воздухе водяной пар достигнет насыщения.
f - Относительная влажность воздуха - влажноcть воздуха, измеренная на высоте 2 м над землей.
Te - Эффективная температура - температура, которую ощущает одетый по сезону человек в тени. Характеристика душности погоды. При расчете учитывается влияние влажности воздуха и скорости ветра на теплоощущения человека.
Tes - Эффективная температура на солнце - температура, которую ощущает человек, с поправкой на солнечный нагрев. Характеристика знойности погоды. Зависит от высоты солнца над горизонтом, облачности и скорости ветра. Ночью, в пасмурную погоду, а также при ветре 12 м/с и более поправка равна нулю.
P - Атмосферное давление - приведенное к уровню моря атмосферное давление.
Po - Атмосферное давление - измеренное на уровне метеостанции атмосферное давление.
Tmin - Минимальная температура - минимум температуры воздуха на высоте 2 м над землей.
Tmax - Максимальная температура - максимум температуры воздуха на высоте 2 м над землей.
R - Количество осадков - Количество выпавших осадков за период времени, мм. При наведении курсора мыши на число - период времени, за который выпало указанное количество осадков.
R24 - Количество осадков - Количество выпавших осадков за 24 часа, мм.
S - Снежный покров - Высота снежного покрова, см. При наведении курсора мыши на число - состояние снежного покрова и степень покрытия местности в баллах.